project_name,platform_name,Date_(yyyymmdd),Time_(hh24miss),beacon_ID,latitude_DD,longitude_DD,altitude_m,altitude_result_value_type,speed_m_s,speed_result_value_type,direction_degrees,direction_result_value_type,fix,sat
BaySys,Amundsen,2008-02-24,20:35:05,300034012520610,70.9886,-123.9218,7.9702,Actual,,Calculated,304.3500,Calculated,1,11
BaySys,Amundsen,2008-02-24,22:34:37,300034012520610,70.9821,-123.9262,19.5554,Actual,,Calculated,140.7100,Calculated,1,5
BaySys,Amundsen,2008-02-25,00:34:23,300034012520610,70.9732,-123.9237,15.8437,Actual,,Calculated,199.6300,Calculated,1,7
BaySys,Amundsen,2008-02-25,02:35:05,300034012520610,70.9663,-123.9194,-9.3069,Actual,,Calculated,141.9100,Calculated,1,10
BaySys,Amundsen,2008-02-25,04:34:27,300034012520610,70.9624,-123.9186,4.9168,Actual,,Calculated,204.0400,Calculated,1,7
BaySys,Amundsen,2008-02-25,06:34:26,300034012520610,70.9604,-123.9229,-11.2341,Actual,,Calculated,142.1200,Calculated,1,8
BaySys,Amundsen,2008-02-25,08:35:05,300034012520610,70.9584,-123.9301,-6.0492,Actual,,Calculated,206.2400,Calculated,1,8
BaySys,Amundsen,2008-02-25,10:34:49,300034012520610,70.9543,-123.9332,-2.6317,Actual,,Calculated,198.6400,Calculated,1,5
BaySys,Amundsen,2008-02-25,12:34:58,300034012520610,70.9490,-123.9301,1.6429,Actual,,Calculated,181.9900,Calculated,1,8
BaySys,Amundsen,2008-02-25,14:34:34,300034012520610,70.9432,-123.9267,-5.5284,Actual,,Calculated,164.9700,Calculated,1,6
BaySys,Amundsen,2008-02-25,16:34:36,300034012520610,70.9380,-123.9254,7.0993,Actual,,Calculated,201.7700,Calculated,1,10
BaySys,Amundsen,2008-02-25,18:35:05,300034012520610,70.9355,-123.9355,-3.9181,Actual,,Calculated,163.5100,Calculated,1,6
BaySys,Amundsen,2008-02-25,20:35:00,300034012520610,70.9343,-123.9480,-2.4835,Actual,,Calculated,243.1000,Calculated,1,6
BaySys,Amundsen,2008-02-25,22:34:49,300034012520610,70.9325,-123.9608,-9.6083,Actual,,Calculated,243.6200,Calculated,1,5
BaySys,Amundsen,2008-02-26,00:34:46,300034012520610,70.9290,-123.9687,9.6423,Actual,,Calculated,3.9900,Calculated,1,6
BaySys,Amundsen,2008-02-26,02:35:23,300034012520610,70.9259,-123.9721,-5.5530,Actual,,Calculated,351.7600,Calculated,1,9
BaySys,Amundsen,2008-02-26,04:34:46,300034012520610,70.9243,-123.9752,-101.7401,Actual,,Calculated,305.9100,Calculated,1,7
BaySys,Amundsen,2008-02-26,06:34:50,300034012520610,70.9245,-123.9810,-11.8559,Actual,,Calculated,53.9200,Calculated,1,9
BaySys,Amundsen,2008-02-26,08:35:23,300034012520610,70.9253,-123.9879,-13.2045,Actual,,Calculated,48.4400,Calculated,1,7
BaySys,Amundsen,2008-02-26,10:35:23,300034012520610,70.9256,-123.9919,-7.3629,Actual,,Calculated,232.4000,Calculated,1,7
BaySys,Amundsen,2008-02-26,12:35:00,300034012520610,70.9252,-123.9922,-3.1248,Actual,,Calculated,235.5400,Calculated,1,9
BaySys,Amundsen,2008-02-26,14:34:57,300034012520610,70.9246,-123.9902,71.7923,Actual,,Calculated,304.8700,Calculated,1,5
BaySys,Amundsen,2008-02-26,16:35:35,300034012520610,70.9244,-123.9896,46.1194,Actual,,Calculated,64.5200,Calculated,1,9
BaySys,Amundsen,2008-02-26,18:35:35,300034012520610,70.9263,-124.0153,-7.0681,Actual,,Calculated,124.8500,Calculated,1,9
BaySys,Amundsen,2008-02-26,20:35:13,300034012520610,70.9268,-124.0182,-4.0854,Actual,,Calculated,287.9400,Calculated,1,5
BaySys,Amundsen,2008-02-26,22:35:13,300034012520610,70.9267,-124.0195,-2.9792,Actual,,Calculated,348.7200,Calculated,1,6
BaySys,Amundsen,2008-02-27,00:35:35,300034012520610,70.9263,-124.0183,-5.0167,Actual,,Calculated,322.3400,Calculated,1,9
BaySys,Amundsen,2008-02-27,02:35:08,300034012520610,70.9260,-124.0162,48.1450,Actual,,Calculated,259.0300,Calculated,1,9
BaySys,Amundsen,2008-02-27,04:35:53,300034012520610,70.9259,-124.0147,9.7877,Actual,,Calculated,327.3500,Calculated,1,10
BaySys,Amundsen,2008-02-27,06:35:35,300034012520610,70.9261,-124.0150,15.0274,Actual,,Calculated,18.2600,Calculated,1,8
BaySys,Amundsen,2008-02-27,08:35:43,300034012520610,70.9261,-124.0161,4.9064,Actual,,Calculated,348.3400,Calculated,1,9
BaySys,Amundsen,2008-02-27,10:35:11,300034012520610,70.9261,-124.0157,-4.8081,Actual,,Calculated,357.4800,Calculated,1,7
BaySys,Amundsen,2008-02-27,12:35:35,300034012520610,70.9259,-124.0143,-3.7262,Actual,,Calculated,9.1800,Calculated,1,9
BaySys,Amundsen,2008-02-27,14:35:36,300034012520610,70.9254,-124.0090,-2.7482,Actual,,Calculated,286.2100,Calculated,1,9
BaySys,Amundsen,2008-02-27,16:35:53,300034012520610,70.9248,-124.0001,5.4931,Actual,,Calculated,346.0700,Calculated,1,12
BaySys,Amundsen,2008-02-27,18:35:32,300034012520610,70.9252,-123.9901,93.9533,Actual,,Calculated,138.3700,Calculated,1,8
BaySys,Amundsen,2008-02-27,20:35:59,300034012520610,70.9251,-123.9796,0.8666,Actual,,Calculated,77.1400,Calculated,1,11
BaySys,Amundsen,2008-02-27,22:35:28,300034012520610,70.9251,-123.9681,-1.4052,Actual,,Calculated,55.4000,Calculated,1,8
BaySys,Amundsen,2008-02-28,00:36:05,300034012520610,70.9243,-123.9544,-3.7130,Actual,,Calculated,82.0300,Calculated,1,10
BaySys,Amundsen,2008-02-28,02:35:48,300034012520610,70.9238,-123.9394,-7.7925,Actual,,Calculated,322.8400,Calculated,1,5
BaySys,Amundsen,2008-02-28,04:35:37,300034012520610,70.9242,-123.9246,27.8754,Actual,,Calculated,110.2200,Calculated,1,8
BaySys,Amundsen,2008-02-28,06:35:34,300034012520610,70.9262,-123.9119,-8.4763,Actual,,Calculated,154.3400,Calculated,1,9
BaySys,Amundsen,2008-02-28,08:36:05,300034012520610,70.9295,-123.9016,-9.4444,Actual,,Calculated,102.2400,Calculated,1,10
BaySys,Amundsen,2008-02-28,10:36:05,300034012520610,70.9319,-123.8936,0.8606,Actual,,Calculated,75.1900,Calculated,1,8
BaySys,Amundsen,2008-02-28,12:35:44,300034012520610,70.9325,-123.8899,-5.3219,Actual,,Calculated,59.6100,Calculated,1,6
BaySys,Amundsen,2008-02-28,14:35:45,300034012520610,70.9329,-123.8859,-2.8626,Actual,,Calculated,104.5900,Calculated,1,6
BaySys,Amundsen,2008-02-28,18:36:08,300034012520610,70.9343,-123.8757,-6.9103,Actual,,Calculated,222.8900,Calculated,1,10
BaySys,Amundsen,2008-02-28,20:36:23,300034012520610,70.9345,-123.8729,-14.3384,Actual,,Calculated,271.5500,Calculated,1,11
BaySys,Amundsen,2008-02-28,22:35:58,300034012520610,70.9337,-123.8693,-8.3952,Actual,,Calculated,153.3600,Calculated,1,10
BaySys,Amundsen,2008-02-29,00:36:29,300034012520610,70.9299,-123.8600,-6.2957,Actual,,Calculated,224.3100,Calculated,1,10
BaySys,Amundsen,2008-02-29,02:36:18,300034012520610,70.9225,-123.8459,-3.9188,Actual,,Calculated,350.2200,Calculated,1,5
BaySys,Amundsen,2008-02-29,04:36:03,300034012520610,70.9109,-123.8333,59.2003,Actual,,Calculated,143.8200,Calculated,1,8
BaySys,Amundsen,2008-02-29,06:36:19,300034012520610,70.8992,-123.8191,28.7826,Actual,,Calculated,11.0000,Calculated,1,5
BaySys,Amundsen,2008-02-29,08:36:35,300034012520610,70.8889,-123.8003,-8.1384,Actual,,Calculated,135.7000,Calculated,1,11
BaySys,Amundsen,2008-02-29,10:36:09,300034012520610,70.8793,-123.7743,5.6711,Actual,,Calculated,135.4200,Calculated,1,9
BaySys,Amundsen,2008-02-29,12:36:35,300034012520610,70.8700,-123.7491,-4.0899,Actual,,Calculated,36.9600,Calculated,1,9
BaySys,Amundsen,2008-02-29,14:36:30,300034012520610,70.8627,-123.7169,-7.2953,Actual,,Calculated,124.8500,Calculated,1,7
BaySys,Amundsen,2008-02-29,16:38:17,300034012520610,70.8562,-123.6863,18.2777,Actual,,Calculated,162.1100,Calculated,1,9
BaySys,Amundsen,2008-02-29,18:38:24,300034012520610,70.8513,-123.6602,3.7062,Actual,,Calculated,153.8600,Calculated,1,11
BaySys,Amundsen,2008-02-29,20:38:18,300034012520610,70.8483,-123.6394,-10.5801,Actual,,Calculated,96.3500,Calculated,1,8
BaySys,Amundsen,2008-02-29,22:38:53,300034012520610,70.8466,-123.6246,-8.1705,Actual,,Calculated,79.4900,Calculated,1,11
BaySys,Amundsen,2008-03-01,00:38:38,300034012520610,70.8462,-123.6181,11.2654,Actual,,Calculated,158.5200,Calculated,1,10
BaySys,Amundsen,2008-03-01,02:38:26,300034012520610,70.8463,-123.6169,20.9531,Actual,,Calculated,193.5000,Calculated,1,11
BaySys,Amundsen,2008-03-01,04:39:05,300034012520610,70.8462,-123.6175,4.8769,Actual,,Calculated,24.4500,Calculated,1,10
BaySys,Amundsen,2008-03-01,06:38:48,300034012520610,70.8463,-123.6230,-1.8174,Actual,,Calculated,269.5900,Calculated,1,11
BaySys,Amundsen,2008-03-01,08:38:31,300034012520610,70.8453,-123.6319,28.8661,Actual,,Calculated,306.5100,Calculated,1,6
BaySys,Amundsen,2008-03-01,10:39:29,300034012520610,70.8445,-123.6349,-7.6092,Actual,,Calculated,257.2700,Calculated,1,11
BaySys,Amundsen,2008-03-01,12:38:38,300034012520610,70.8437,-123.6331,-6.6120,Actual,,Calculated,96.1700,Calculated,1,8
BaySys,Amundsen,2008-03-01,14:38:34,300034012520610,70.8409,-123.6261,-7.2751,Actual,,Calculated,329.8900,Calculated,1,8
BaySys,Amundsen,2008-03-01,16:38:37,300034012520610,70.8368,-123.6187,-3.0178,Actual,,Calculated,274.4200,Calculated,1,9
BaySys,Amundsen,2008-03-01,18:39:05,300034012520610,70.8331,-123.6084,-11.9428,Actual,,Calculated,113.5300,Calculated,1,11
BaySys,Amundsen,2008-03-01,20:38:54,300034012520610,70.8313,-123.5945,-4.4561,Actual,,Calculated,339.3400,Calculated,1,6
BaySys,Amundsen,2008-03-01,22:38:40,300034012520610,70.8309,-123.5782,-11.4149,Actual,,Calculated,20.7700,Calculated,1,11
BaySys,Amundsen,2008-03-02,00:39:23,300034012520610,70.8315,-123.5544,-13.4691,Actual,,Calculated,353.6000,Calculated,1,12
BaySys,Amundsen,2008-03-02,02:39:12,300034012520610,70.8328,-123.5236,7.0787,Actual,,Calculated,89.9500,Calculated,1,10
BaySys,Amundsen,2008-03-02,04:38:46,300034012520610,70.8326,-123.4800,-5.9784,Actual,,Calculated,110.8900,Calculated,1,8
BaySys,Amundsen,2008-03-02,06:39:29,300034012520610,70.8326,-123.4326,-1.2141,Actual,,Calculated,96.4500,Calculated,1,12
BaySys,Amundsen,2008-03-02,08:38:52,300034012520610,70.8347,-123.3852,-5.9890,Actual,,Calculated,85.7900,Calculated,1,9
BaySys,Amundsen,2008-03-02,10:39:29,300034012520610,70.8396,-123.3373,-2.2616,Actual,,Calculated,78.1200,Calculated,1,10
BaySys,Amundsen,2008-03-02,12:38:56,300034012520610,70.8454,-123.2878,4.4807,Actual,,Calculated,75.1500,Calculated,1,7
BaySys,Amundsen,2008-03-02,14:39:07,300034012520610,70.8522,-123.2369,-22.0278,Actual,,Calculated,74.5900,Calculated,1,8
BaySys,Amundsen,2008-03-02,16:39:35,300034012520610,70.8590,-123.1855,-7.2625,Actual,,Calculated,60.6500,Calculated,1,14
BaySys,Amundsen,2008-03-02,18:39:24,300034012520610,70.8655,-123.1358,-12.7347,Actual,,Calculated,68.4100,Calculated,1,11
BaySys,Amundsen,2008-03-02,20:39:07,300034012520610,70.8719,-123.0889,-4.8413,Actual,,Calculated,59.8600,Calculated,1,10
BaySys,Amundsen,2008-03-02,22:39:53,300034012520610,70.8772,-123.0491,-8.0517,Actual,,Calculated,66.7000,Calculated,1,11
BaySys,Amundsen,2008-03-03,00:39:35,300034012520610,70.8812,-123.0167,-7.9552,Actual,,Calculated,54.7700,Calculated,1,12
BaySys,Amundsen,2008-03-03,02:39:16,300034012520610,70.8845,-122.9926,-2.8485,Actual,,Calculated,65.6700,Calculated,1,9
BaySys,Amundsen,2008-03-03,04:39:53,300034012520610,70.8869,-122.9779,-1.8211,Actual,,Calculated,37.8300,Calculated,1,11
BaySys,Amundsen,2008-03-03,06:39:15,300034012520610,70.8872,-122.9739,-2.2163,Actual,,Calculated,81.2900,Calculated,1,8
BaySys,Amundsen,2008-03-03,08:39:35,300034012520610,70.8873,-122.9739,-9.4492,Actual,,Calculated,318.3500,Calculated,1,10
BaySys,Amundsen,2008-03-03,10:39:44,300034012520610,70.8872,-122.9741,-0.8506,Actual,,Calculated,0.0200,Calculated,1,11
BaySys,Amundsen,2008-03-03,12:39:25,300034012520610,70.8872,-122.9740,-4.2089,Actual,,Calculated,61.5800,Calculated,1,7
BaySys,Amundsen,2008-03-03,14:40:05,300034012520610,70.8872,-122.9741,-8.3838,Actual,,Calculated,170.0700,Calculated,1,10
BaySys,Amundsen,2008-03-03,16:39:47,300034012520610,70.8872,-122.9740,3.1506,Actual,,Calculated,260.3500,Calculated,1,10
BaySys,Amundsen,2008-03-03,18:39:27,300034012520610,70.8871,-122.9742,-6.9716,Actual,,Calculated,179.8300,Calculated,1,9
BaySys,Amundsen,2008-03-03,20:40:05,300034012520610,70.8869,-122.9745,-2.7821,Actual,,Calculated,270.8000,Calculated,1,10
BaySys,Amundsen,2008-03-03,22:40:05,300034012520610,70.8866,-122.9764,-3.9473,Actual,,Calculated,351.3300,Calculated,1,10
BaySys,Amundsen,2008-03-04,00:40:05,300034012520610,70.8861,-122.9872,-7.7956,Actual,,Calculated,89.9200,Calculated,1,12
BaySys,Amundsen,2008-03-04,02:39:54,300034012520610,70.8851,-123.0063,-8.6613,Actual,,Calculated,135.3500,Calculated,1,6
BaySys,Amundsen,2008-03-04,04:39:41,300034012520610,70.8835,-123.0315,20.7113,Actual,,Calculated,253.1400,Calculated,1,8
BaySys,Amundsen,2008-03-04,14:49:48,300034012520610,70.8800,-123.1536,16.1179,Actual,,Calculated,220.7900,Calculated,1,7
BaySys,Amundsen,2008-03-04,16:50:17,300034012520610,70.8812,-123.1790,-4.8783,Actual,,Calculated,208.0400,Calculated,1,8
BaySys,Amundsen,2008-03-04,18:50:53,300034012520610,70.8825,-123.2044,-11.2981,Actual,,Calculated,25.3600,Calculated,1,13
BaySys,Amundsen,2008-03-04,20:50:43,300034012520610,70.8851,-123.2304,-4.9541,Actual,,Calculated,293.9200,Calculated,1,7
BaySys,Amundsen,2008-03-04,22:50:28,300034012520610,70.8892,-123.2575,-8.5825,Actual,,Calculated,253.1400,Calculated,1,7
BaySys,Amundsen,2008-03-05,00:51:05,300034012520610,70.8947,-123.2841,-15.0290,Actual,,Calculated,280.1600,Calculated,1,12
BaySys,Amundsen,2008-03-05,02:51:05,300034012520610,70.9005,-123.3141,16.0505,Actual,,Calculated,194.1700,Calculated,1,9
BaySys,Amundsen,2008-03-05,04:51:00,300034012520610,70.9045,-123.3503,-2.2595,Actual,,Calculated,296.4000,Calculated,1,12
BaySys,Amundsen,2008-03-05,06:50:36,300034012520610,70.9096,-123.3872,-3.5562,Actual,,Calculated,310.6200,Calculated,1,7
BaySys,Amundsen,2008-03-05,08:51:05,300034012520610,70.9186,-123.4256,-0.4904,Actual,,Calculated,96.0500,Calculated,1,8
BaySys,Amundsen,2008-03-05,10:51:05,300034012520610,70.9295,-123.4583,-2.3377,Actual,,Calculated,324.7400,Calculated,1,10
BaySys,Amundsen,2008-03-05,12:50:40,300034012520610,70.9410,-123.4909,3.2898,Actual,,Calculated,292.1500,Calculated,1,7
BaySys,Amundsen,2008-03-05,14:50:53,300034012520610,70.9550,-123.5218,-21.9961,Actual,,Calculated,336.1700,Calculated,1,7
BaySys,Amundsen,2008-03-05,16:51:05,300034012520610,70.9699,-123.5448,-4.8468,Actual,,Calculated,125.6600,Calculated,1,12
BaySys,Amundsen,2008-03-05,18:51:05,300034012520610,70.9816,-123.5560,-3.9305,Actual,,Calculated,247.8100,Calculated,1,11
BaySys,Amundsen,2008-03-05,20:51:23,300034012520610,70.9897,-123.5590,-1.2564,Actual,,Calculated,326.2400,Calculated,1,11
BaySys,Amundsen,2008-03-05,22:51:23,300034012520610,70.9938,-123.5574,1.2949,Actual,,Calculated,351.3000,Calculated,1,9
BaySys,Amundsen,2008-03-06,00:50:53,300034012520610,70.9953,-123.5557,-14.0523,Actual,,Calculated,39.0100,Calculated,1,9
BaySys,Amundsen,2008-03-06,02:51:35,300034012520610,70.9964,-123.5586,-9.4442,Actual,,Calculated,21.3800,Calculated,1,11
BaySys,Amundsen,2008-03-06,04:51:20,300034012520610,70.9988,-123.5650,-9.6552,Actual,,Calculated,296.5400,Calculated,1,12
BaySys,Amundsen,2008-03-06,06:50:58,300034012520610,71.0033,-123.5715,-0.8571,Actual,,Calculated,32.3700,Calculated,1,7
BaySys,Amundsen,2008-03-06,08:51:35,300034012520610,71.0051,-123.5751,-10.9195,Actual,,Calculated,21.0800,Calculated,1,9
BaySys,Amundsen,2008-03-06,10:51:09,300034012520610,71.0083,-123.5907,-5.7704,Actual,,Calculated,324.5700,Calculated,1,8
BaySys,Amundsen,2008-03-06,12:51:53,300034012520610,71.0155,-123.6190,-8.7913,Actual,,Calculated,300.9000,Calculated,1,12
BaySys,Amundsen,2008-03-06,14:51:13,300034012520610,71.0240,-123.6491,14.8448,Actual,,Calculated,306.6600,Calculated,1,8
BaySys,Amundsen,2008-03-06,16:51:35,300034012520610,71.0320,-123.6701,-7.5425,Actual,,Calculated,34.9500,Calculated,1,12
BaySys,Amundsen,2008-03-06,18:51:32,300034012520610,71.0370,-123.6821,-0.2401,Actual,,Calculated,84.2300,Calculated,1,13
BaySys,Amundsen,2008-03-06,20:51:21,300034012520610,71.0383,-123.6863,-8.1851,Actual,,Calculated,298.8800,Calculated,1,11
BaySys,Amundsen,2008-03-06,22:52:05,300034012520610,71.0361,-123.6864,-9.3675,Actual,,Calculated,173.9900,Calculated,1,9
BaySys,Amundsen,2008-03-07,00:51:59,300034012520610,71.0285,-123.6845,-12.0810,Actual,,Calculated,196.8700,Calculated,1,11
BaySys,Amundsen,2008-03-07,02:51:27,300034012520610,71.0178,-123.6847,35.5928,Actual,,Calculated,162.2000,Calculated,1,9
BaySys,Amundsen,2008-03-07,04:51:25,300034012520610,71.0057,-123.6813,24.3374,Actual,,Calculated,209.0400,Calculated,1,7
BaySys,Amundsen,2008-03-07,06:52:05,300034012520610,70.9942,-123.6818,5.1430,Actual,,Calculated,176.4400,Calculated,1,11
BaySys,Amundsen,2008-03-07,08:51:53,300034012520610,70.9835,-123.6743,-6.3252,Actual,,Calculated,92.0200,Calculated,1,9
BaySys,Amundsen,2008-03-07,10:51:37,300034012520610,70.9732,-123.6638,-15.1759,Actual,,Calculated,190.4300,Calculated,1,7
BaySys,Amundsen,2008-03-07,12:51:38,300034012520610,70.9659,-123.6522,33.7594,Actual,,Calculated,200.2100,Calculated,1,9
BaySys,Amundsen,2008-03-07,14:51:54,300034012520610,70.9958,-123.6647,-6.2692,Actual,,Calculated,207.6400,Calculated,1,5
BaySys,Amundsen,2008-03-07,16:51:43,300034012520610,70.9626,-123.6346,6.1565,Actual,,Calculated,320.6500,Calculated,1,10
BaySys,Amundsen,2008-03-07,18:51:41,300034012520610,70.9619,-123.6275,-24.4975,Actual,,Calculated,107.1400,Calculated,1,8
BaySys,Amundsen,2008-03-07,20:52:29,300034012520610,70.9586,-123.6195,-9.0203,Actual,,Calculated,131.1300,Calculated,1,10
BaySys,Amundsen,2008-03-07,22:52:08,300034012520610,70.9548,-123.6122,-13.9670,Actual,,Calculated,166.0400,Calculated,1,8
BaySys,Amundsen,2008-03-08,00:51:47,300034012520610,70.9539,-123.6112,-1.6019,Actual,,Calculated,240.9400,Calculated,1,12
BaySys,Amundsen,2008-03-08,02:52:29,300034012520610,70.9545,-123.6174,7.7889,Actual,,Calculated,195.8000,Calculated,1,11
BaySys,Amundsen,2008-03-08,04:52:05,300034012520610,70.9557,-123.6312,2.0553,Actual,,Calculated,335.9800,Calculated,1,9
BaySys,Amundsen,2008-03-08,06:51:51,300034012520610,70.9569,-123.6562,-2.2293,Actual,,Calculated,262.3600,Calculated,1,11
BaySys,Amundsen,2008-03-08,08:52:23,300034012520610,70.9560,-123.6857,-10.5771,Actual,,Calculated,350.6900,Calculated,1,11
BaySys,Amundsen,2008-03-08,10:51:55,300034012520610,70.9530,-123.7179,-9.3121,Actual,,Calculated,257.7500,Calculated,1,8
BaySys,Amundsen,2008-03-08,12:52:01,300034012520610,70.9510,-123.7549,18.2843,Actual,,Calculated,244.4300,Calculated,1,7
BaySys,Amundsen,2008-03-08,14:52:29,300034012520610,70.9523,-123.7996,-0.4269,Actual,,Calculated,258.0100,Calculated,1,10
BaySys,Amundsen,2008-03-08,16:52:01,300034012520610,70.9538,-123.8472,-3.6815,Actual,,Calculated,275.1000,Calculated,1,11
BaySys,Amundsen,2008-03-08,18:52:35,300034012520610,70.9555,-123.8987,-2.5976,Actual,,Calculated,346.8300,Calculated,1,11
BaySys,Amundsen,2008-03-08,20:52:35,300034012520610,70.9566,-123.9448,-8.7681,Actual,,Calculated,273.2600,Calculated,1,5
BaySys,Amundsen,2008-03-08,22:52:13,300034012520610,70.9563,-123.9720,-8.4992,Actual,,Calculated,266.1700,Calculated,1,9
BaySys,Amundsen,2008-03-09,00:52:53,300034012520610,70.9555,-123.9896,-14.7575,Actual,,Calculated,323.9600,Calculated,1,11
BaySys,Amundsen,2008-03-09,02:52:14,300034012520610,70.9586,-124.0043,41.1001,Actual,,Calculated,262.9400,Calculated,1,9
BaySys,Amundsen,2008-03-09,04:52:13,300034012520610,70.9627,-124.0115,13.5941,Actual,,Calculated,8.4300,Calculated,1,8
BaySys,Amundsen,2008-03-09,06:52:35,300034012520610,70.9656,-124.0124,-0.8280,Actual,,Calculated,279.6100,Calculated,1,11
BaySys,Amundsen,2008-03-09,08:52:38,300034012520610,70.9663,-124.0123,-6.3784,Actual,,Calculated,24.0100,Calculated,1,12
BaySys,Amundsen,2008-03-09,10:52:24,300034012520610,70.9652,-124.0112,-16.3358,Actual,,Calculated,166.8000,Calculated,1,6
BaySys,Amundsen,2008-03-09,12:52:27,300034012520610,70.9645,-124.0101,42.0932,Actual,,Calculated,286.9500,Calculated,1,9
BaySys,Amundsen,2008-03-09,14:52:59,300034012520610,70.9646,-124.0100,-3.2804,Actual,,Calculated,157.0200,Calculated,1,9
BaySys,Amundsen,2008-03-09,16:52:44,300034012520610,70.9649,-124.0102,0.9919,Actual,,Calculated,31.3800,Calculated,1,9
BaySys,Amundsen,2008-03-09,18:52:35,300034012520610,70.9651,-124.0100,-1.7179,Actual,,Calculated,145.3900,Calculated,1,7
BaySys,Amundsen,2008-03-09,20:53:05,300034012520610,70.9652,-124.0103,-6.1847,Actual,,Calculated,310.5200,Calculated,1,10
BaySys,Amundsen,2008-03-09,22:52:40,300034012520610,70.9652,-124.0103,-8.1213,Actual,,Calculated,357.6900,Calculated,1,6
BaySys,Amundsen,2008-03-10,00:53:05,300034012520610,70.9651,-124.0103,-3.4122,Actual,,Calculated,60.5200,Calculated,1,7
BaySys,Amundsen,2008-03-10,02:53:06,300034012520610,70.9652,-124.0104,10.2883,Actual,,Calculated,142.4700,Calculated,1,7
BaySys,Amundsen,2008-03-10,04:52:52,300034012520610,70.9652,-124.0104,-3.7148,Actual,,Calculated,176.4300,Calculated,1,7
BaySys,Amundsen,2008-03-10,06:53:23,300034012520610,70.9652,-124.0104,-8.1001,Actual,,Calculated,4.5900,Calculated,1,14
BaySys,Amundsen,2008-03-10,08:53:07,300034012520610,70.9651,-124.0106,-4.8836,Actual,,Calculated,205.3100,Calculated,1,7
BaySys,Amundsen,2008-03-10,10:53:03,300034012520610,70.9652,-124.0105,-1.8815,Actual,,Calculated,5.2700,Calculated,1,9
BaySys,Amundsen,2008-03-10,12:52:56,300034012520610,70.9651,-124.0104,-6.8466,Actual,,Calculated,244.3000,Calculated,1,9
BaySys,Amundsen,2008-03-10,14:53:29,300034012520610,70.9652,-124.0104,-6.2845,Actual,,Calculated,188.3200,Calculated,1,11
BaySys,Amundsen,2008-03-10,16:53:20,300034012520610,70.9634,-124.0080,125.7456,Actual,,Calculated,45.1000,Calculated,1,10
BaySys,Amundsen,2008-03-10,18:52:59,300034012520610,70.9652,-124.0105,-8.9253,Actual,,Calculated,272.3800,Calculated,1,10
BaySys,Amundsen,2008-03-10,20:53:35,300034012520610,70.9652,-124.0104,-4.6912,Actual,,Calculated,314.1200,Calculated,1,10
BaySys,Amundsen,2008-03-10,22:53:35,300034012520610,70.9650,-124.0102,-0.0655,Actual,,Calculated,272.4700,Calculated,1,7
BaySys,Amundsen,2008-03-11,00:53:12,300034012520610,70.9647,-124.0095,-15.7787,Actual,,Calculated,136.8200,Calculated,1,10
BaySys,Amundsen,2008-03-11,02:53:53,300034012520610,70.9639,-124.0064,4.5432,Actual,,Calculated,225.0100,Calculated,1,9
BaySys,Amundsen,2008-03-11,04:53:35,300034012520610,70.9638,-124.0060,1.9580,Actual,,Calculated,28.4100,Calculated,1,9
BaySys,Amundsen,2008-03-11,06:53:35,300034012520610,70.9639,-124.0060,-2.0198,Actual,,Calculated,138.4200,Calculated,1,10
BaySys,Amundsen,2008-03-11,08:53:36,300034012520610,70.9638,-124.0061,-6.6028,Actual,,Calculated,83.2800,Calculated,1,7
BaySys,Amundsen,2008-03-11,10:53:24,300034012520610,70.9638,-124.0060,-16.3188,Actual,,Calculated,281.3900,Calculated,1,5
BaySys,Amundsen,2008-03-11,12:53:25,300034012520610,70.9630,-124.0041,-7.0693,Actual,,Calculated,184.6800,Calculated,1,8
BaySys,Amundsen,2008-03-11,14:53:53,300034012520610,70.9619,-124.0007,-8.4420,Actual,,Calculated,336.2800,Calculated,1,11
BaySys,Amundsen,2008-03-11,16:53:44,300034012520610,70.9609,-123.9985,-4.1967,Actual,,Calculated,321.7500,Calculated,1,9
BaySys,Amundsen,2008-03-11,18:53:35,300034012520610,70.9600,-123.9977,-14.9958,Actual,,Calculated,192.8800,Calculated,1,10
BaySys,Amundsen,2008-03-11,20:54:05,300034012520610,70.9589,-123.9975,-6.8587,Actual,,Calculated,311.5500,Calculated,1,10
BaySys,Amundsen,2008-03-11,22:53:35,300034012520610,70.9574,-123.9963,0.8509,Actual,,Calculated,249.1400,Calculated,1,7
BaySys,Amundsen,2008-03-12,00:53:41,300034012520610,70.9563,-123.9937,-5.4174,Actual,,Calculated,332.7000,Calculated,1,8
BaySys,Amundsen,2008-03-12,02:54:05,300034012520610,70.9556,-123.9906,3.0589,Actual,,Calculated,81.8900,Calculated,1,8
BaySys,Amundsen,2008-03-12,04:53:48,300034012520610,70.9555,-123.9894,19.8524,Actual,,Calculated,302.7000,Calculated,1,9
BaySys,Amundsen,2008-03-12,06:54:05,300034012520610,70.9555,-123.9893,-1.7401,Actual,,Calculated,254.2800,Calculated,1,13
BaySys,Amundsen,2008-03-12,08:54:05,300034012520610,70.9554,-123.9895,-17.1381,Actual,,Calculated,43.2400,Calculated,1,6
BaySys,Amundsen,2008-03-12,10:53:57,300034012520610,70.9553,-123.9884,-13.3885,Actual,,Calculated,28.6700,Calculated,1,8
BaySys,Amundsen,2008-03-12,12:53:59,300034012520610,70.9535,-123.9802,-5.9179,Actual,,Calculated,183.4000,Calculated,1,10